Overview Statistics Trail Chart Weather Telemetry Raw packets
 

This is the latest recevied weather packets stored in our database for station/object SM0UQT-10. If no packets are shown the sender has not sent any weather packets the latest 10 day(s).

<< 1 2 3 4 5 >>
Time Temp. Humidity Pressure Rain* Wind** Luminosity Snow
1788615524 15.56° C 61% 990.3 hPa - - - -
1788614624 15.56° C 60% 990.2 hPa - - - -
1788613724 15.56° C 61% 990 hPa - - - -
1788612824 16.11° C 61% 989.9 hPa - - - -
1788611923 17.22° C 62% 989.8 hPa - - - -
1788611023 16.67° C 63% 989.6 hPa - - - -
1788610123 17.22° C 63% 989.5 hPa - - - -
1788609223 17.22° C 65% 989.4 hPa - - - -
1788608323 17.78° C 66% 989.2 hPa - - - -
1788607423 17.78° C 66% 989.2 hPa - - - -
1788606523 16.67° C 67% 989.1 hPa - - - -
1788605623 16.11° C 65% 988.8 hPa - - - -
1788604723 16.11° C 66% 988.7 hPa - - - -
1788603823 16.67° C 68% 988.4 hPa - - - -
1788602923 16.67° C 69% 988.3 hPa - - - -
1788602023 16.11° C 69% 988.3 hPa - - - -
1788601157 15.56° C 70% 988.2 hPa - - - -
1788601122 15.56° C 70% 988.2 hPa - - - -
1788600222 16.11° C 71% 988.1 hPa - - - -
1788599322 15.56° C 73% 987.9 hPa - - - -
1788598422 14.44° C 73% 988 hPa - - - -
1788597522 14.44° C 74% 987.8 hPa - - - -
1788596622 13.89° C 73% 987.7 hPa - - - -
1788595754 12.78° C 71% 987.6 hPa - - - -
1788595722 12.78° C 71% 987.6 hPa - - - -

* Rain since midnight (hover to see other rain measurements)
** Current wind speed in m/s (hover to see current wind gust speed)